Location: *
(28.3744°N, 81.5492°W)
Time: 04:18:08
(UTC+00:00)

Cosmos 1408 Rocket - Pass Details

Date: 15 June 2025
Orbit: 594 x 624 km, 82.6° (Epoch: 11 July)

Event Time Altitude Azimuth Distance (km) Brightness Sun altitude
Rises 01:55:08 0° 347° (NNW) 2,835 7.8 -17.4°
Reaches altitude 10° 01:57:23 10° 342° (NNW) 1,932 7.0 -17.8°
Maximum altitude 02:01:30 49° 267° (W) 776 4.3 -18.5°
Enters shadow 02:04:43 16° 197° (SSW) 1,586 5.4 -19.0°
